Andrews, NC

3:02 PM EDT on September 26, 2017 (GMT -0400)
Andrews

Weather History for KRHP - February, 2013

Change the Weather History Date:

Tuesday, February 19, 2013

  Actual Average (KMMI) Record (KMMI)
Temperature  
Mean Temperature 38 °F -  
Max Temperature 50 °F 52 °F 71 °F (2014)
Min Temperature 27 °F 31 °F 1 °F (2015)
Degree Days  
Heating Degree Days 26    
Moisture  
Dew Point 29 °F    
Average Humidity 70    
Maximum Humidity 99    
Minimum Humidity 31    
Precipitation  
Precipitation 0.31 in - - ()
Sea Level Pressure  
Sea Level Pressure 30.03 in    
Wind  
Wind Speed 6 mph (West)    
Max Wind Speed 23 mph    
Max Gust Speed 31 mph    
Visibility 8 miles    
Events Rain    
Averages and records for this station are not official NWS values.
T = Trace of Precipitation, MM = Missing Value Source: NWS Daily Summary

Daily Weather History Graph

Daily Weather History Graph

Search for Another Location

Airport or City:

Trip Planner

Search our weather history database for the weather conditions in past years. The results will help you decide how hot, cold, wet, or windy it might be!

Date:

Astronomy

Feb. 19, 2013 Rise Set
Actual Time 7:16 AM EST 6:22 PM EST
Civil Twilight 6:51 AM EST 6:47 PM EST
Nautical Twilight 6:21 AM EST 7:17 PM EST
Astronomical Twilight 5:52 AM EST 7:46 PM EST
Moon 12:59 PM EST (2/19) 2:41 AM EST (2/19)
Length of Visible Light 11h 56m
Length of Day
11h 05m
Waxing Gibbous, 67% of the Moon is Illuminated
Feb 19
Waxing Gibbous
Feb 25
Full
Mar 4
Last Quarter
Mar 11
New
Mar 19
First Quarter

Hourly Weather History & Observations

Time (EST) Temp. Windchill Dew Point Humidity Pressure Visibility Wind Dir Wind Speed Gust Speed Precip Events Conditions
12:15 AM 45.5 °F 41.8 °F 23.5 °F 42% 30.10 in 10.0 mi WSW 6.9 mph 18.4 mph N/A   Overcast
12:35 AM 45.0 °F 40.6 °F 23.4 °F 43% 30.08 in 10.0 mi WSW 8.1 mph - N/A   Overcast
12:55 AM 45.5 °F 42.5 °F 21.9 °F 39% 30.07 in 10.0 mi WSW 5.8 mph 18.4 mph N/A   Overcast
1:15 AM 45.9 °F 42.3 °F 20.7 °F 37% 30.05 in 10.0 mi WSW 6.9 mph - N/A   Overcast
1:35 AM 46.0 °F 41.0 °F 20.1 °F 36% 30.05 in 10.0 mi WSW 10.4 mph - N/A   Overcast
1:55 AM 46.4 °F 42.9 °F 22.3 °F 39% 30.03 in 10.0 mi SW 6.9 mph - N/A   Overcast
2:15 AM 46.8 °F - 25.2 °F 43% 30.03 in 10.0 mi WSW 5.8 mph 25.3 mph N/A   Overcast
2:35 AM 46.9 °F - 26.6 °F 45% 30.04 in 10.0 mi WSW 11.5 mph - N/A   Light Drizzle
2:55 AM 44.2 °F 37.6 °F 30.2 °F 58% 30.08 in 10.0 mi SW 13.8 mph 20.7 mph N/A Rain Light Rain
3:15 AM 42.4 °F 38.8 °F 31.8 °F 66% 30.06 in 10.0 mi SSW 5.8 mph 21.9 mph N/A Rain Rain
3:35 AM 41.9 °F 39.0 °F 32.2 °F 68% 30.05 in 10.0 mi West 4.6 mph - 0.01 in Rain Light Rain
3:55 AM 40.5 °F - 34.7 °F 80% 30.06 in 10.0 mi Calm Calm - 0.01 in Rain Light Rain
4:15 AM 40.3 °F - 33.6 °F 77% 30.05 in 7.0 mi Calm Calm - 0.01 in Rain Rain
4:35 AM 39.0 °F 35.7 °F 34.0 °F 82% 30.07 in 5.0 mi WSW 4.6 mph - 0.06 in Rain Rain
4:55 AM 37.6 °F 29.6 °F 34.9 °F 90% 30.09 in 7.0 mi West 12.7 mph - 0.11 in Rain Rain
5:15 AM 36.5 °F 33.9 °F 34.0 °F 91% 30.06 in 3.0 mi West 3.5 mph - 0.04 in Rain Rain
5:35 AM 34.5 °F 30.4 °F 32.9 °F 94% 30.05 in 3.0 mi NNW 4.6 mph - 0.09 in Rain Rain
5:55 AM 33.8 °F - 32.4 °F 94% 30.03 in 7.0 mi Calm Calm - 0.10 in Rain Light Rain
6:15 AM 33.4 °F - 32.2 °F 95% 30.03 in 4.0 mi Calm Calm - 0.01 in Rain Light Rain
6:55 AM 32.5 °F - 32.0 °F 98% 30.01 in 3.0 mi Calm Calm - 0.05 in Rain Light Rain
7:15 AM 32.5 °F - 32.2 °F 99% 30.01 in 4.0 mi Calm Calm - 0.01 in Rain Light Rain
7:35 AM 32.9 °F - 32.5 °F 99% 30.00 in 3.0 mi Calm Calm - 0.02 in Rain Light Rain
7:55 AM 33.3 °F 30.2 °F 32.7 °F 98% 30.00 in 7.0 mi ENE 3.5 mph - 0.02 in   Overcast
8:15 AM 33.8 °F - 32.9 °F 96% 30.00 in 10.0 mi Calm Calm - N/A   Overcast
8:35 AM 33.8 °F - 33.1 °F 97% 30.01 in 1.8 mi Calm Calm - N/A Rain Rain
8:55 AM 34.2 °F - 33.4 °F 97% 30.01 in 3.0 mi Calm Calm - N/A   Drizzle
9:15 AM 34.7 °F - 33.8 °F 97% 30.01 in 4.0 mi Calm Calm - N/A Rain Rain
9:35 AM 34.9 °F - 34.2 °F 97% 30.02 in 4.0 mi Calm Calm - 0.01 in Rain Rain
9:55 AM 35.1 °F - 34.2 °F 97% 30.02 in 3.0 mi Calm Calm - 0.02 in   Drizzle
10:15 AM 35.2 °F - 34.3 °F 97% 30.02 in 3.0 mi Calm Calm - N/A   Drizzle
10:35 AM 36.0 °F - 35.2 °F 97% 30.03 in 5.0 mi Calm Calm - N/A Rain Rain
10:55 AM 36.3 °F - 35.2 °F 96% 30.03 in 5.0 mi Calm Calm - N/A   Drizzle
11:15 AM 37.0 °F 34.5 °F 36.0 °F 96% 30.02 in 7.0 mi East 3.5 mph - N/A   Overcast
11:35 AM 37.8 °F 35.3 °F 36.5 °F 95% 30.01 in 10.0 mi East 3.5 mph - N/A   Overcast
11:55 AM 39.0 °F - 37.2 °F 93% 30.01 in 10.0 mi Calm Calm - N/A   Overcast
12:15 PM 40.1 °F 36.9 °F 38.5 °F 94% 30.01 in 10.0 mi East 4.6 mph - N/A   Overcast
12:35 PM 41.5 °F 39.6 °F 39.2 °F 91% 30.00 in 10.0 mi ENE 3.5 mph - N/A   Overcast
12:55 PM 42.8 °F - 39.4 °F 88% 29.99 in 10.0 mi Calm Calm - N/A   Overcast
1:15 PM 45.3 °F 43.0 °F 40.5 °F 83% 29.98 in 10.0 mi NE 4.6 mph - N/A   Overcast
1:35 PM 48.9 °F - 38.1 °F 66% 29.97 in 10.0 mi WSW 12.7 mph 17.3 mph N/A   Scattered Clouds
1:55 PM 49.6 °F - 34.3 °F 56% 29.96 in 10.0 mi WSW 13.8 mph 19.6 mph N/A   Clear
2:15 PM 50.0 °F - 33.8 °F 54% 29.96 in 10.0 mi WSW 20.7 mph 25.3 mph N/A   Clear
2:35 PM 50.0 °F - 32.4 °F 51% 29.96 in 10.0 mi WSW 18.4 mph 24.2 mph N/A   Scattered Clouds
2:55 PM 50.5 °F - 32.2 °F 49% 29.96 in 10.0 mi WSW 20.7 mph 25.3 mph N/A   Scattered Clouds
3:15 PM 50.0 °F - 31.1 °F 48% 29.97 in 10.0 mi WSW 20.7 mph 31.1 mph N/A   Clear
3:35 PM 50.2 °F - 28.9 °F 44% 29.97 in 10.0 mi West 20.7 mph 28.8 mph N/A   Scattered Clouds
3:55 PM 50.2 °F - 25.3 °F 38% 29.98 in 10.0 mi WNW 16.1 mph 24.2 mph N/A   Scattered Clouds
4:15 PM 50.0 °F - 27.5 °F 42% 29.98 in 10.0 mi West 20.7 mph 25.3 mph N/A   Clear
4:35 PM 49.6 °F - 24.3 °F 37% 29.99 in 10.0 mi WSW 18.4 mph - N/A   Clear
4:55 PM 49.1 °F - 24.4 °F 38% 29.99 in 10.0 mi West 18.4 mph 21.9 mph N/A   Clear
5:15 PM 47.8 °F - 21.0 °F 35% 30.00 in 10.0 mi West 18.4 mph 25.3 mph N/A   Scattered Clouds
5:35 PM 46.9 °F - 21.2 °F 36% 30.01 in 10.0 mi WSW 23.0 mph 28.8 mph N/A   Clear
5:55 PM 45.9 °F 43.6 °F 18.3 °F 33% 30.02 in 10.0 mi NW 4.6 mph 12.7 mph N/A   Clear
6:15 PM 45.0 °F 39.3 °F 15.4 °F 31% 30.03 in 10.0 mi WNW 11.5 mph 20.7 mph N/A   Clear
7:35 PM 39.6 °F 34.7 °F 18.7 °F 43% 30.07 in 10.0 mi NW 6.9 mph 16.1 mph N/A   Clear
8:15 PM 34.9 °F 28.3 °F 21.6 °F 58% 30.08 in 10.0 mi WNW 8.1 mph - N/A   Clear
8:35 PM 34.5 °F 31.6 °F 20.8 °F 57% 30.08 in 10.0 mi NW 3.5 mph - N/A   Clear
8:55 PM 32.2 °F 27.7 °F 21.9 °F 66% 30.08 in 10.0 mi NW 4.6 mph - N/A   Clear
9:15 PM 32.7 °F - 21.0 °F 62% 30.08 in 10.0 mi Calm Calm - N/A   Clear
10:15 PM 30.6 °F 25.8 °F 21.6 °F 69% 30.10 in 10.0 mi West 4.6 mph - N/A   Clear
10:35 PM 30.4 °F 24.5 °F 21.4 °F 69% 30.10 in 10.0 mi WSW 5.8 mph - N/A   Clear
10:55 PM 29.1 °F - 21.6 °F 73% 30.11 in 10.0 mi Calm Calm - N/A   Clear
11:15 PM 28.8 °F - 22.6 °F 78% 30.12 in 10.0 mi Calm Calm - N/A   Clear
11:35 PM 27.9 °F - 22.5 °F 80% 30.13 in 10.0 mi Calm Calm - N/A   Clear
11:55 PM 27.1 °F - 22.5 °F 83% 30.13 in 10.0 mi Calm Calm - N/A   Clear